When you browse on this site, cookies collect data to enhance your experience and personalize the content and advertising you see.
Visit our Privacy Policy to learn more. By continuing to use the site, you agree to this use of cookies and data.
  • Em Portugal
  • Lista de países
  • Para 7 dias
  • Temperatura da água
  • Mapa do tempo
  • Widgets de tempo
  • user-avatar
    Iniciar Sessão

    Previsão horária em Kaprun

    Hoje, 23 Agosto, Sexta-feira

    Tempo Temperatura Precipitação Vento Pressão Humidade
    00:00 +7°C° 0 mm 0 m/s 603 mmHg 94%
    01:00 +7°C° 0 mm 0 m/s 603 mmHg 93%
    02:00 +7°C° 0 mm 0 m/s 603 mmHg 93%
    03:00 +7°C° 0 mm 0 m/s 603 mmHg 93%
    04:00 +6°C° 0 mm 0 m/s 603 mmHg 93%
    05:00 +8°C° 0 mm 0 m/s 603 mmHg 90%
    06:00 +9°C° 0 mm 0 m/s 604 mmHg 88%
    07:00 +11°C° 0 mm 1 m/s 605 mmHg 87%
    08:00 +12°C° 0.2 mm 1 m/s 605 mmHg 83%
    09:00 +14°C° 0.2 mm 1 m/s 606 mmHg 78%
    10:00 +15°C° 0.2 mm 1 m/s 606 mmHg 74%
    11:00 +16°C° 0.8 mm 2 m/s 606 mmHg 74%
    12:00 +16°C° 0.8 mm 2 m/s 606 mmHg 74%
    13:00 +16°C° 0.8 mm 2 m/s 606 mmHg 74%
    14:00 +16°C° 1 mm 1 m/s 606 mmHg 77%
    15:00 +15°C° 1 mm 1 m/s 605 mmHg 80%
    16:00 +15°C° 1 mm 1 m/s 605 mmHg 82%
    17:00 +14°C° 0.4 mm 1 m/s 604 mmHg 86%
    18:00 +13°C° 0.4 mm 1 m/s 604 mmHg 89%
    19:00 +12°C° 0.4 mm 1 m/s 603 mmHg 92%
    20:00 +11°C° 0.1 mm 1 m/s 603 mmHg 91%
    21:00 +11°C° 0.1 mm 1 m/s 603 mmHg 90%
    22:00 +10°C° 0.1 mm 1 m/s 603 mmHg 89%
    23:00 +10°C° 0 mm 1 m/s 603 mmHg 89%

    Amanhã, 24 Agosto, Sábado

    Tempo Temperatura Precipitação Vento Pressão Humidade
    00:00 +10°C° 0 mm 1 m/s 602 mmHg 88%
    01:00 +9°C° 0 mm 1 m/s 602 mmHg 88%
    02:00 +9°C° 0 mm 1 m/s 602 mmHg 88%
    03:00 +9°C° 0 mm 1 m/s 602 mmHg 87%
    04:00 +8°C° 0 mm 2 m/s 601 mmHg 87%
    05:00 +10°C° 0 mm 1 m/s 602 mmHg 85%
    06:00 +11°C° 0 mm 1 m/s 602 mmHg 83%
    07:00 +12°C° 0 mm 1 m/s 603 mmHg 81%
    08:00 +14°C° 0 mm 1 m/s 604 mmHg 73%
    09:00 +16°C° 0 mm 1 m/s 605 mmHg 66%
    10:00 +19°C° 0 mm 1 m/s 605 mmHg 58%
    11:00 +19°C° 0.7 mm 1 m/s 605 mmHg 58%
    12:00 +19°C° 0.7 mm 1 m/s 605 mmHg 58%
    13:00 +18°C° 0.7 mm 2 m/s 605 mmHg 59%
    14:00 +19°C° 0.9 mm 1 m/s 604 mmHg 63%
    15:00 +18°C° 0.9 mm 1 m/s 604 mmHg 67%
    16:00 +18°C° 0.9 mm 1 m/s 604 mmHg 71%
    17:00 +15°C° 0.6 mm 1 m/s 603 mmHg 76%
    18:00 +13°C° 0.6 mm 1 m/s 602 mmHg 82%
    19:00 +11°C° 0.6 mm 1 m/s 601 mmHg 88%
    20:00 +11°C° 0.2 mm 1 m/s 601 mmHg 88%
    21:00 +10°C° 0.2 mm 1 m/s 601 mmHg 88%
    22:00 +9°C° 0.2 mm 1 m/s 601 mmHg 87%
    23:00 +9°C° 0 mm 1 m/s 601 mmHg 87%

    Depois de amanhã, 25 Agosto, Domingo

    Tempo Temperatura Precipitação Vento Pressão Humidade
    00:00 +9°C° 0 mm 1 m/s 600 mmHg 86%
    01:00 +8°C° 0 mm 1 m/s 600 mmHg 86%
    02:00 +8°C° 0 mm 1 m/s 600 mmHg 85%
    03:00 +8°C° 0 mm 1 m/s 600 mmHg 84%
    04:00 +8°C° 0 mm 1 m/s 600 mmHg 83%
    05:00 +9°C° 0 mm 1 m/s 601 mmHg 80%
    06:00 +11°C° 0 mm 1 m/s 601 mmHg 77%
    07:00 +11°C° 0 mm 0 m/s 602 mmHg 74%
    08:00 +14°C° 0 mm 1 m/s 603 mmHg 67%
    09:00 +16°C° 0 mm 1 m/s 604 mmHg 60%
    10:00 +19°C° 0 mm 1 m/s 604 mmHg 53%
    11:00 +19°C° 0.5 mm 1 m/s 604 mmHg 55%
    12:00 +19°C° 0.5 mm 1 m/s 604 mmHg 57%
    13:00 +19°C° 0.5 mm 1 m/s 604 mmHg 58%
    14:00 +19°C° 1.4 mm 1 m/s 604 mmHg 64%
    15:00 +18°C° 1.4 mm 1 m/s 603 mmHg 70%
    16:00 +18°C° 1.4 mm 1 m/s 603 mmHg 75%
    17:00 +15°C° 1.1 mm 1 m/s 602 mmHg 80%
    18:00 +14°C° 1.1 mm 1 m/s 602 mmHg 84%
    19:00 +11°C° 1.1 mm 0 m/s 601 mmHg 89%
    20:00 +12°C° 0.4 mm 1 m/s 601 mmHg 89%
    21:00 +11°C° 0.4 mm 1 m/s 601 mmHg 90%
    22:00 +10°C° 0.4 mm 1 m/s 601 mmHg 91%
    23:00 +10°C° 0.1 mm 1 m/s 601 mmHg 90%

    26 Agosto, Segunda-feira

    Tempo Temperatura Precipitação Vento Pressão Humidade
    00:00 +10°C° 0.1 mm 1 m/s 601 mmHg 90%
    01:00 +8°C° 0.1 mm 0 m/s 601 mmHg 89%
    02:00 +9°C° 0 mm 1 m/s 600 mmHg 89%
    03:00 +9°C° 0 mm 1 m/s 600 mmHg 89%
    04:00 +8°C° 0 mm 1 m/s 600 mmHg 89%
    05:00 +10°C° 0 mm 1 m/s 601 mmHg 86%
    06:00 +11°C° 0 mm 1 m/s 601 mmHg 84%
    07:00 +11°C° 0 mm 0 m/s 602 mmHg 82%
    08:00 +14°C° 0.1 mm 1 m/s 603 mmHg 75%
    09:00 +16°C° 0.1 mm 1 m/s 603 mmHg 69%
    10:00 +18°C° 0.1 mm 1 m/s 604 mmHg 62%
    11:00 +19°C° 0.6 mm 1 m/s 604 mmHg 61%
    12:00 +19°C° 0.6 mm 1 m/s 604 mmHg 60%
    13:00 +20°C° 0.6 mm 1 m/s 604 mmHg 59%
    14:00 +19°C° 1 mm 1 m/s 604 mmHg 63%
    15:00 +19°C° 1 mm 1 m/s 603 mmHg 67%
    16:00 +18°C° 1 mm 1 m/s 603 mmHg 71%
    17:00 +16°C° 1 mm 1 m/s 602 mmHg 77%
    18:00 +14°C° 1 mm 1 m/s 602 mmHg 82%
    19:00 +12°C° 1 mm 0 m/s 601 mmHg 87%
    20:00 +12°C° 0.3 mm 1 m/s 601 mmHg 88%
    21:00 +12°C° 0.3 mm 1 m/s 601 mmHg 88%
    22:00 +11°C° 0.3 mm 1 m/s 601 mmHg 88%
    23:00 +11°C° 0.1 mm 1 m/s 601 mmHg 88%

    27 Agosto, Terça-feira

    Tempo Temperatura Precipitação Vento Pressão Humidade
    00:00 +10°C° 0.1 mm 1 m/s 600 mmHg 88%
    01:00 +10°C° 0.1 mm 1 m/s 600 mmHg 89%
    02:00 +9°C° 0 mm 1 m/s 600 mmHg 88%
    03:00 +9°C° 0 mm 1 m/s 600 mmHg 88%
    04:00 +9°C° 0 mm 1 m/s 600 mmHg 87%
    05:00 +10°C° 0 mm 1 m/s 600 mmHg 84%
    06:00 +11°C° 0 mm 0 m/s 601 mmHg 81%
    07:00 +12°C° 0 mm 0 m/s 602 mmHg 78%
    08:00 +15°C° 0.1 mm 1 m/s 603 mmHg 72%
    09:00 +18°C° 0.1 mm 1 m/s 603 mmHg 66%
    10:00 +19°C° 0.1 mm 1 m/s 604 mmHg 59%
    11:00 +20°C° 0.6 mm 1 m/s 604 mmHg 58%
    12:00 +20°C° 0.6 mm 1 m/s 604 mmHg 57%
    13:00 +21°C° 0.6 mm 1 m/s 604 mmHg 55%
    14:00 +20°C° 1.1 mm 1 m/s 604 mmHg 61%
    15:00 +19°C° 1.1 mm 1 m/s 603 mmHg 68%
    16:00 +18°C° 1.1 mm 1 m/s 602 mmHg 74%
    17:00 +16°C° 0.8 mm 1 m/s 602 mmHg 79%
    18:00 +14°C° 0.8 mm 1 m/s 601 mmHg 83%
    19:00 +13°C° 0.8 mm 1 m/s 601 mmHg 88%
    20:00 +12°C° 0 mm 2 m/s 601 mmHg 89%
    21:00 +10°C° 0 mm 2 m/s 601 mmHg 89%
    22:00 +10°C° 0 mm 2 m/s 601 mmHg 90%
    23:00 +9°C° 0 mm 2 m/s 601 mmHg 89%

    28 Agosto, Quarta-feira

    Tempo Temperatura Precipitação Vento Pressão Humidade
    00:00 +9°C° 0 mm 2 m/s 600 mmHg 89%
    01:00 +9°C° 0 mm 2 m/s 600 mmHg 88%
    02:00 +9°C° 0 mm 2 m/s 600 mmHg 86%
    03:00 +9°C° 0 mm 2 m/s 600 mmHg 85%
    04:00 +8°C° 0 mm 2 m/s 600 mmHg 83%
    05:00 +9°C° 0 mm 2 m/s 600 mmHg 81%
    06:00 +11°C° 0 mm 1 m/s 601 mmHg 79%
    07:00 +12°C° 0 mm 1 m/s 602 mmHg 76%
    08:00 +14°C° 0 mm 1 m/s 602 mmHg 69%
    09:00 +16°C° 0 mm 1 m/s 603 mmHg 61%
    10:00 +19°C° 0 mm 1 m/s 604 mmHg 53%
    11:00 +19°C° 0.2 mm 1 m/s 604 mmHg 53%
    12:00 +20°C° 0.2 mm 1 m/s 604 mmHg 53%
    13:00 +19°C° 0.2 mm 2 m/s 604 mmHg 53%
    14:00 +19°C° 0.5 mm 2 m/s 604 mmHg 58%
    15:00 +19°C° 0.5 mm 1 m/s 603 mmHg 63%
    16:00 +18°C° 0.5 mm 1 m/s 603 mmHg 68%
    17:00 +16°C° 0.9 mm 1 m/s 603 mmHg 76%
    18:00 +14°C° 0.9 mm 1 m/s 602 mmHg 84%
    19:00 +12°C° 0.9 mm 1 m/s 601 mmHg 92%
    20:00 +12°C° 0.7 mm 1 m/s 602 mmHg 93%
    21:00 +11°C° 0.7 mm 1 m/s 602 mmHg 93%
    22:00 +11°C° 0.7 mm 1 m/s 602 mmHg 94%
    23:00 +11°C° 0.3 mm 1 m/s 602 mmHg 94%
    Mostrar mais